SL-8 DEB *

Satellite information

Favourite Embed

Satellite Type and Status

DEBRISIN ORBIT

Key statistics

Satellite SL-8 DEB * at a glance.

Uptime

15313

Days in orbit

Revolutions

≈ 14.5

Per day

Orbit

LEO

Low Earth Orbit

Inclination

74.0

Latest

Satellite identification and parameters

Extended collection of information and parameters for SL-8 DEB *.

Object identification

Identified? True

Debris? True

Object name: SL-8 DEB *

International designator: 1983-079C

Object number (NORAD): 14813

Object ID (CCSDS): 14813

Country: COMMONWEALTH OF INDEPENDENT STATES (CIS)

Current information (Y/N): Y

RCS size: SMALL

Orbital parameters

Period: 99.433 minutes

Inclination: 74.031 deg

SMA: 7109.638 km

Apoapsis: 743.769 km

Periapsis: 719.238 km

RAAN: 214.4073 deg

Eccentricy: 0.0017252

Argument of periapsis: 293.5878 deg

Mean anomaly: 228.6473 deg

Mean motion: 14.48209908 rev/day

Mean motion (dot): 0.00000786 rev/day2

B* drag term: 0.00021758 1/REarth

Two-line elements (TLE)

Creation date: July 5, 2025, 5:45 p.m.

Reference frame: TEME

Reference center: EARTH

Epoch: July 5, 2025, 12:18 p.m. UTC

TLE line 0: 0 SL-8 DEB *

TLE line 1: 1 14813U 83079C 25186.51276245 .00000786 00000-0 21758-3 0 9995

TLE line 2: 2 14813 74.0310 214.4073 0017252 293.5878 228.6473 14.48209908293016

Live tracking on map

Real-time ground track for satellite SL-8 DEB *.

In-orbit conjunctions

A list of the most updated potential collisions computed for object SL-8 DEB *.

Target Orbit TCA Probability of collision Miss distance Type
FENGYUN 1C DEB SSO 2024-08-04 10:16:47 0.0001229672 397.0 (m) DEBRIS

Associated space launch

Military communications satellite

SL-8 DEB * was lifted into orbit during the mission ‘Kosmos-3M | Strela-2M 32’, on board a Kosmos-3M space rocket.

The launch took place on Aug. 3, 1983, 12:40 p.m. from 132/2.

For more information about the launch, click the button.

Launch to space Kosmos-3M | Strela-2M 32
Kosmos-3M | Strela-2M 32

Agency: N/A

Status: Launch Successful

Launch date: Aug. 3, 1983, 12:40 p.m. UTC

Rocket: Kosmos-3M

Launch pad: 132/2

Location: Plesetsk Cosmodrome, Russian Federation

...

Latest news about this satellite

There are no fresh news available about this satellite. Check back as we update our databases every day.


Newsletter sign-up

Weekly statistics, charts and insights to help you stay on top of the space industry.